Location: *
(29.1167°S, 130.0000°E)
Time: 09:42:15
(UTC+00:00)

Chunghua 1 - Pass Details

Date: 21 July 2019
Orbit: 462 x 494 km, 34.9° (Epoch: 25 August)

Event Time Altitude Azimuth Distance (km) Brightness Sun altitude
Rises 09:25:47 0° 293° (WNW) 2,486 10.5 -9.7°
Reaches altitude 10° 09:27:57 10° 294° (WNW) 1,612 8.8 -10.1°
Maximum altitude 09:31:38 86° 24° (NNE) 470 4.4 -10.9°
Enters shadow 09:34:21 18° 110° (ESE) 1,226 5.9 -11.4°
